Wind_Speed
12 10 8 6 5 5 5 6 7 8 8 9 10 12 14 17 19 21 22 22 21 21 20 19 19 19 19 19 19 18 17 16 15 13 11 10 9 7 5 3 1 1 2 4 5 6 8 10 11 12 12 13 14 13 13 11 11 12 13 14 15 15 16 16 17 17 19 21 23 23 24 24 24 24 24 24 24 25 25 26 26 27 28 29 30
16 14 12 10 8 7 7 6 7 8 9 9 10 11 12 14 16 17 18 19 20 20 20 19 19 19 19 19 19 18 18 17 16 14 13 11 10 8 6 5 4 2 2 3 4 4 5 7 8 9 9 10 11 11 10 10 9 10 11 12 13 14 14 15 16 18 19 21 22 22 22 23 23 22 22 22 22 23 23 24 23 23 25 26 27
20 19 17 14 11 10 9 8 8 8 9 10 11 11 12 12 13 15 16 17 18 18 18 19 19 19 18 18 18 18 18 17 16 15 14 13 11 9 8 7 6 5 4 4 5 5 5 5 6 7 7 8 8 8 8 8 8 8 10 12 13 13 14 15 17 18 19 20 20 21 21 21 21 20 20 20 20 20 20 21 20 20 20 22 23
25 25 23 19 16 13 11 10 10 9 10 11 12 13 13 13 13 14 15 15 16 17 17 17 18 18 18 18 18 17 17 16 15 15 14 13 12 11 9 8 7 6 6 5 5 5 5 6 6 6 6 6 6 6 5 6 7 8 9 11 12 13 14 16 17 18 18 19 20 20 20 19 19 18 18 17 17 17 18 18 18 17 18 19 20
29 29 26 24 21 17 14 13 12 13 12 12 12 13 13 14 15 15 15 15 16 16 17 17 17 17 17 17 17 17 16 16 15 15 14 14 13 12 10 9 9 8 7 7 6 6 6 6 7 7 7 6 5 4 2 4 7 8 9 10 12 13 14 15 16 16 17 18 18 19 18 17 15 15 14 14 14 14 15 15 16 16 16 16 16
31 31 30 28 27 23 20 19 20 20 19 18 16 16 15 14 15 16 16 16 17 17 17 17 17 17 17 17 17 17 17 16 16 15 14 14 13 12 12 11 10 9 9 9 9 8 8 8 8 8 8 8 6 4 1 3 8 10 9 9 11 12 13 12 12 12 14 15 15 15 15 13 11 11 11 11 12 12 12 12 13 13 13 12 10
35 34 33 33 31 28 24 24 26 26 25 24 23 21 18 16 17 17 17 17 18 18 18 18 18 18 18 18 18 17 17 17 16 16 15 15 14 13 13 12 12 12 12 11 11 11 11 11 10 10 9 9 8 6 5 5 9 11 11 10 10 11 11 10 9 10 11 12 12 11 9 9 9 9 8 8 9 9 9 8 8 9 8 7 6
39 38 37 37 35 31 28 28 29 29 28 27 26 24 22 21 21 20 18 19 19 19 20 19 19 19 19 19 19 19 18 18 18 18 17 17 17 16 15 15 14 14 14 14 14 14 14 13 12 12 11 11 11 10 8 7 9 11 11 11 11 12 12 11 11 10 9 9 9 8 7 8 9 8 7 8 8 6 5 5 4 2 2 2 3
44 42 41 40 38 35 33 32 32 31 30 29 28 28 28 27 25 20 19 21 22 22 21 21 20 20 20 20 20 19 20 20 20 20 20 19 19 18 18 17 16 16 16 16 16 16 16 15 15 14 13 13 13 12 10 9 9 9 9 10 11 12 12 13 12 11 11 11 10 9 8 8 10 9 8 9 10 8 6 6 4 7 7 5 4
48 46 45 43 41 39 38 37 35 34 33 33 33 32 31 30 27 25 25 27 27 26 25 24 23 22 22 21 21 21 22 21 20 20 20 20 20 19 18 18 18 18 17 17 17 17 17 16 15 14 14 13 14 13 12 10 9 9 9 10 11 11 12 13 12 12 12 12 11 11 10 11 11 12 11 11 11 11 10 9 8 10 11 9 7
51 49 48 47 45 44 43 41 39 38 37 38 37 35 33 32 32 32 33 33 31 30 29 27 26 25 24 24 23 24 23 21 21 21 20 20 20 18 18 18 19 18 18 18 18 17 16 16 15 14 14 15 15 15 14 12 11 11 12 12 13 13 14 13 13 13 14 14 14 14 15 15 15 15 15 14 13 13 13 12 12 13 14 13 11
54 52 51 50 48 47 46 45 43 42 41 41 39 37 36 37 37 36 36 35 33 33 33 31 29 28 28 27 26 26 24 23 24 23 22 22 21 20 19 20 21 20 20 19 19 18 17 16 15 15 16 17 16 16 15 14 14 14 15 15 15 16 16 16 16 16 17 17 17 17 18 19 18 18 18 17 16 16 16 16 16 17 15 14 14
58 56 54 53 52 50 50 49 47 45 44 43 42 41 41 41 41 39 36 34 34 35 34 33 32 32 31 29 29 29 28 27 27 25 24 24 24 23 23 23 24 23 22 22 22 21 20 18 18 18 19 19 19 18 18 18 18 18 18 18 18 18 19 19 20 20 20 20 20 19 20 19 18 17 18 18 18 18 19 19 20 19 17 17 17
62 60 58 57 56 54 52 51 49 48 47 47 46 45 44 43 43 41 37 36 37 37 35 34 34 35 34 32 32 32 32 31 30 30 29 28 27 27 26 26 26 26 25 25 25 24 24 22 21 21 22 22 23 23 23 23 24 24 24 23 22 22 21 22 23 23 22 22 22 22 21 21 19 18 19 20 20 20 20 21 22 21 20 19 19
66 64 62 61 59 57 55 54 53 52 51 51 50 49 46 45 45 44 41 41 42 42 39 38 38 38 36 34 33 33 34 34 34 35 34 32 31 30 29 29 29 29 28 29 28 27 27 26 25 24 25 25 27 27 27 27 27 27 27 26 26 26 24 24 25 24 24 24 24 24 23 23 22 21 21 23 23 23 22 23 25 25 24 22 21
69 68 66 64 63 61 60 59 58 57 55 54 54 52 50 48 47 47 45 43 44 45 43 42 41 39 38 36 34 34 37 38 38 38 37 36 34 33 32 32 32 32 32 32 31 30 29 28 28 27 27 28 30 31 30 30 29 29 28 28 28 28 27 27 27 27 26 25 26 26 26 26 25 25 25 26 26 25 25 26 27 28 29 28 27
71 71 70 68 66 64 63 64 64 62 59 58 57 55 53 51 49 49 48 46 45 46 46 45 42 40 39 38 37 38 41 41 41 40 40 39 38 36 34 33 33 33 34 35 35 33 33 33 33 33 32 32 34 34 33 33 32 31 30 30 30 30 28 29 30 31 29 29 29 29 28 28 28 28 28 28 26 26 28 30 31 31 32 32 31
73 74 73 72 70 67 65 65 67 66 64 62 61 58 56 54 53 52 51 50 48 48 48 47 44 41 41 41 41 44 45 45 44 43 42 42 41 39 38 37 37 35 34 36 37 37 37 37 37 38 37 36 35 34 35 35 35 34 34 34 34 32 30 30 33 35 33 32 32 32 32 32 32 31 30 30 28 28 31 34 34 34 35 35 34
77 77 76 74 73 71 68 67 68 69 68 66 65 62 59 57 57 56 54 53 52 50 49 49 47 44 43 44 46 47 48 49 48 46 45 44 43 42 42 43 43 41 39 39 39 39 40 41 41 41 41 39 37 36 36 36 37 38 38 39 40 37 33 32 34 36 37 36 35 34 34 34 34 33 32 32 31 31 33 36 37 38 38 37 37
80 80 78 76 75 75 73 71 70 71 71 70 69 66 63 61 59 59 58 57 55 54 52 51 50 48 45 47 50 50 49 50 51 50 49 49 47 46 47 48 48 47 46 45 45 44 44 45 44 44 44 43 42 41 40 39 39 39 40 41 43 42 40 38 38 38 40 40 39 37 35 34 34 34 35 35 35 35 37 39 39 40 41 39 38
83 82 80 78 77 77 77 76 74 72 73 73 73 70 68 65 63 61 61 59 57 56 56 55 53 52 51 51 52 53 51 51 52 51 51 53 52 50 50 51 52 53 52 52 51 49 49 49 49 48 47 47 47 47 46 44 43 42 42 42 44 45 44 44 43 42 43 44 43 41 40 38 37 37 36 36 37 39 41 42 42 43 44 43 42
85 85 83 81 80 78 78 79 78 77 75 75 75 74 73 71 68 65 64 62 57 55 57 57 54 54 56 56 55 55 55 55 56 53 50 52 53 53 53 54 56 56 57 57 56 54 53 53 52 51 50 49 49 50 50 48 47 47 46 46 47 47 47 47 47 46 46 47 47 47 45 45 44 42 41 40 40 43 44 45 45 46 46 47 47
87 88 87 86 84 82 79 79 80 81 80 78 78 78 77 76 74 72 70 68 65 61 60 59 55 55 57 58 57 56 56 61 64 60 54 51 52 52 54 56 57 57 58 59 59 58 57 57 56 55 54 53 52 52 52 51 50 50 50 50 50 50 49 49 49 49 49 50 51 52 52 51 50 48 47 47 47 48 48 47 46 47 48 50 52
88 89 90 89 88 86 83 81 81 82 83 82 82 81 81 81 80 78 76 76 74 71 69 67 64 61 61 61 60 58 59 63 65 63 60 59 57 55 55 56 57 57 58 59 61 61 61 61 60 59 58 58 57 56 56 56 56 55 55 55 54 54 53 52 52 51 51 52 53 55 55 55 52 50 50 51 52 52 52 51 50 51 52 53 53
88 90 91 91 91 90 88 86 84 84 85 85 85 85 85 85 85 84 82 81 81 81 80 78 76 73 70 68 66 64 63 64 65 64 63 64 64 63 62 61 60 60 60 61 62 62 63 63 63 62 61 60 60 60 60 61 61 61 60 59 58 57 57 57 56 55 54 54 55 56 56 57 56 53 51 52 53 54 55 55 53 51 53 54 54
89 89 91 92 92 92 90 88 87 87 87 87 87 87 88 89 89 89 88 86 86 86 86 85 83 81 79 77 75 72 69 68 68 68 67 66 67 68 67 66 66 65 64 64 65 64 64 64 65 65 64 63 63 63 63 64 64 64 63 62 60 59 59 59 60 59 58 57 57 57 57 58 58 57 55 53 52 53 54 55 54 53 55 58 58
93 90 90 92 93 92 91 89 89 88 88 88 88 89 89 89 91 92 92 91 91 90 90 89 87 85 84 82 81 80 77 74 73 72 72 71 71 71 71 70 70 70 69 69 69 68 67 67 67 67 67 66 66 66 66 66 67 67 66 65 63 62 62 62 61 61 61 61 60 60 60 60 60 59 59 57 56 55 56 58 59 59 61 63 63
100 95 91 91 92 93 93 92 91 91 90 89 89 90 90 90 91 93 94 95 95 94 94 93 91 89 87 85 85 84 82 80 78 77 77 75 74 75 75 74 73 73 73 73 72 72 71 70 71 71 70 69 69 69 69 69 70 69 69 69 68 67 66 66 66 65 64 64 64 64 64 64 64 64 63 63 62 63 64 64 65 66 67 68 69
105 103 97 93 92 93 94 94 93 93 93 92 91 91 92 92 92 93 95 96 97 97 96 96 95 93 90 88 87 87 86 85 83 82 81 81 80 80 80 79 79 78 78 78 77 76 76 74 74 73 72 72 72 72 72 72 72 72 72 72 71 71 70 70 70 69 69 69 69 68 68 69 69 69 68 68 68 69 69 70 70 70 71 72 72
104 107 105 100 96 94 94 95 95 96 95 95 94 94 94 95 94 95 96 97 98 98 98 98 98 97 96 93 91 89 89 88 87 86 85 85 85 85 85 85 85 85 84 84 84 83 82 81 80 77 75 74 74 74 73 74 75 75 76 76 75 75 74 73 73 73 73 73 73 73 73 73 73 73 72 72 72 72 72 73 73 73 73 75 76
101 105 107 106 102 99 97 97 97 98 98 98 97 96 96 97 97 96 97 98 99 100 100 100 99 98 98 98 97 95 93 91 90 88 88 89 89 89 89 89 89 90 90 89 89 89 88 87 87 85 83 81 81 80 79 79 79 79 79 79 78 77 76 76 76 77 77 76 76 76 77 77 77 76 76 76 76 75 75 76 76 76 77 79 81
101 103 106 107 106 103 102 101 100 100 100 101 101 100 100 100 100 99 99 99 100 101 101 101 101 100 100 100 100 100 99 97 94 92 90 89 90 91 92 92 92 92 92 92 92 92 91 90 91 91 90 88 87 86 85 84 83 83 82 81 80 80 79 78 78 79 79 79 79 79 79 80 80 80 80 80 80 80 80 80 81 81 81 83 85
104 104 106 107 107 106 105 105 105 105 104 103 103 103 103 103 103 103 103 102 101 101 102 102 103 103 103 102 102 102 102 102 100 98 96 93 91 91 92 93 93 93 93 93 93 93 93 93 93 94 94 94 93 92 91 89 88 86 85 84 83 82 82 81 81 81 81 81 81 81 82 82 83 84 84 84 85 85 85 85 86 86 86 87 88
104 105 107 108 108 108 107 107 108 110 109 107 105 105 105 105 106 106 107 106 105 104 103 104 104 104 105 105 104 104 105 105 103 102 100 99 96 94 92 91 93 93 93 93 93 94 94 95 96 97 98 98 98 98 97 95 93 92 90 88 86 85 84 84 84 85 85 85 85 84 84 84 85 85 86 87 87 88 89 89 90 90 90 91 92
103 104 106 108 109 110 110 109 110 112 113 113 111 108 106 106 107 108 109 110 109 108 107 107 106 106 107 108 108 107 107 107 107 106 104 103 101 99 96 94 93 93 94 95 95 95 95 96 97 99 100 101 102 102 101 100 99 98 97 95 93 91 89 88 88 88 89 89 89 89 88 88 88 88 89 89 90 91 91 92 93 93 94 95 95
105 104 105 106 108 110 112 113 113 113 115 116 117 115 111 110 109 109 109 110 111 111 111 111 110 110 110 111 112 112 111 111 111 111 110 109 107 106 104 102 99 97 97 98 99 99 99 100 100 100 101 103 104 105 105 104 104 103 102 102 101 99 97 95 94 93 93 93 93 94 94 94 93 93 93 93 93 94 94 94 95 96 97 97 98
109 108 107 107 107 108 110 113 116 117 117 118 119 119 118 116 114 112 112 112 112 112 112 112 113 113 114 115 115 115 115 115 115 116 116 116 115 113 112 110 108 106 103 102 103 103 104 105 105 105 105 105 106 108 109 109 109 108 108 107 106 105 104 102 101 100 99 98 98 98 98 98 98 98 98 98 98 98 98 98 98 98 99 99 99
111 112 112 111 109 109 109 110 113 117 119 121 122 122 122 122 120 118 116 115 115 114 114 113 113 113 114 116 117 118 117 118 118 119 120 120 120 119 118 117 116 115 113 111 109 108 108 108 109 109 110 110 111 112 113 114 113 113 113 112 111 111 110 109 108 107 106 106 105 104 104 103 103 103 103 103 102 102 102 102 102 102 103 103 103
109 111 113 114 114 113 112 111 111 113 116 120 123 124 126 126 125 124 123 121 119 118 118 118 117 116 115 117 118 118 119 119 120 120 122 123 123 123 123 122 121 120 119 118 117 116 115 114 113 112 113 113 114 115 116 117 118 118 118 117 116 115 114 114 113 112 112 112 111 111 110 110 109 109 109 109 109 109 108 108 108 108 108 108 109
104 107 111 113 115 116 116 116 116 115 115 117 119 122 126 128 129 129 128 127 126 124 123 122 122 121 121 121 120 119 119 120 120 122 123 124 125 125 125 125 125 124 124 124 123 123 122 121 120 119 117 116 116 116 116 116 117 118 119 120 120 120 119 119 118 117 116 116 116 115 115 115 115 115 116 116 116 116 115 115 115 115 115 115 114
98 101 105 108 112 115 116 118 119 120 121 120 120 120 122 125 129 131 133 133 133 131 130 128 127 127 127 126 125 124 123 122 122 123 124 126 127 128 128 127 126 127 127 128 127 127 127 126 126 125 124 123 122 121 120 119 118 117 117 117 118 119 121 121 122 122 121 120 120 120 120 120 120 120 120 121 121 121 121 121 121 121 120 120 120
95 96 98 101 104 108 111 114 116 119 122 123 124 125 124 125 126 129 132 135 137 138 137 135 133 133 132 132 132 131 130 129 128 127 127 128 129 131 131 131 131 131 131 131 131 131 131 130 129 128 127 128 128 127 127 126 125 125 124 123 122 121 121 121 121 121 122 121 122 122 123 123 123 122 122 123 124 124 124 124 124 124 123 123 123
91 92 93 95 97 100 103 106 110 113 116 120 123 126 128 129 129 129 130 132 135 138 140 141 140 140 139 139 138 137 137 136 135 133 132 132 132 133 134 134 135 136 137 136 136 136 135 134 133 131 130 130 131 131 130 130 130 130 129 129 129 128 127 126 125 124 123 123 123 123 123 123 123 123 123 124 125 125 126 127 127 127 127 126 126
86 88 90 91 93 94 96 99 102 106 109 113 117 122 125 129 131 132 133 133 134 136 138 140 142 143 144 145 145 144 143 142 141 139 138 137 136 135 136 137 138 140 140 141 141 141 140 139 137 136 134 134 134 134 134 133 133 133 133 133 133 132 132 132 131 130 130 129 129 128 128 128 128 127 127 127 127 127 127 128 128 128 128 128 128
79 81 83 86 88 90 92 94 96 99 102 105 109 114 118 123 127 131 133 135 137 138 138 140 141 142 144 147 149 150 150 150 148 145 144 142 141 139 139 138 139 141 142 143 144 144 144 144 143 141 140 139 139 139 138 137 137 136 136 136 136 136 136 136 135 135 135 135 134 134 134 134 134 133 133 133 133 133 132 131 131 130 129 128 127
71 73 76 78 80 83 85 87 89 91 93 96 99 103 108 113 118 123 128 132 135 138 140 141 142 143 144 146 148 150 153 154 154 153 152 150 148 147 145 144 143 144 144 145 146 146 146 147 146 146 145 144 144 144 143 142 141 141 142 141 141 140 140 140 140 140 140 140 140 139 138 138 138 139 138 138 138 138 137 137 137 136 136 137 136
61 64 67 69 71 74 76 78 80 82 85 87 90 93 96 101 105 111 117 123 128 133 136 139 142 144 146 147 148 149 151 153 154 155 155 155 155 155 154 153 152 152 151 150 149 148 148 148 148 148 148 148 147 147 146 145 144 144 145 146 146 145 144 144 144 144 144 145 145 144 144 144 144 144 144 143 142 141 141 140 140 141 142 143 143
51 54 56 59 61 63 66 68 71 74 77 79 82 85 88 92 95 100 105 110 116 122 128 132 137 141 144 146 148 149 150 151 152 152 153 154 155 157 158 159 160 161 160 159 158 156 154 154 153 153 152 152 151 150 149 148 147 147 148 148 148 148 148 148 148 149 149 149 149 149 149 149 150 149 149 149 148 148 147 146 146 146 146 147 147
46 49 51 53 55 57 60 62 65 67 70 73 76 78 81 85 88 92 96 101 105 111 116 122 127 133 137 141 145 147 149 151 151 151 151 151 152 153 154 156 159 161 162 163 163 163 162 162 162 162 161 160 159 158 158 157 157 157 157 156 156 155 154 153 152 152 152 152 152 152 152 153 153 153 153 153 152 152 152 152 151 151 151 151 151
46 48 50 52 54 56 58 60 62 64 66 69 71 74 77 80 83 87 90 94 98 103 108 112 117 121 126 131 135 139 142 145 147 149 150 150 151 152 153 154 156 157 159 159 160 160 161 163 164 165 166 167 166 166 165 165 165 165 165 164 164 163 163 162 161 160 159 158 157 157 157 157 157 156 156 156 156 156 156 157 157 156 156 155 155
49 50 51 52 54 56 58 59 61 63 65 67 70 72 75 78 81 84 87 90 94 98 101 105 108 112 115 118 122 125 128 132 135 137 139 141 143 145 146 148 150 152 154 155 156 157 157 158 159 161 163 165 166 166 167 167 167 167 167 167 166 166 166 166 165 164 164 163 163 163 163 163 162 162 162 162 161 161 160 161 161 161 160 160 160
Wind_Direction
242 238 221 199 181 171 160 151 144 136 136 138 141 147 153 159 165 169 172 174 175 175 175 175 175 176 178 180 182 183 185 186 187 188 190 191 190 190 194 199 184 85 40 26 28 36 37 35 32 28 30 39 48 61 74 80 85 92 95 97 99 99 99 100 100 101 103 105 105 102 101 100 99 98 97 95 94 91 89 86 85 84 83 82 82
238 241 235 218 200 193 188 177 166 157 152 151 153 156 160 163 168 172 176 180 181 182 183 184 183 183 183 185 187 190 193 195 199 201 205 206 207 210 220 230 237 253 291 322 341 0 11 18 22 19 20 30 40 54 74 87 92 95 102 107 108 107 107 106 108 110 111 110 108 105 104 105 104 102 100 98 95 92 89 87 85 82 82 82 81
233 234 235 227 211 204 201 196 191 181 171 166 165 166 168 171 173 177 180 184 186 189 191 192 192 191 191 192 194 196 199 202 205 209 212 215 217 221 230 237 242 250 266 289 307 319 332 344 357 2 4 16 32 46 71 94 102 105 112 117 117 119 118 117 117 119 119 118 116 113 111 109 108 106 103 100 97 94 92 90 89 87 84 83 82
224 226 228 227 219 209 205 206 208 203 193 185 180 177 176 178 181 184 186 189 191 193 196 197 198 199 199 200 201 203 206 208 211 214 218 220 223 226 230 233 237 244 256 270 282 292 300 313 326 334 338 350 12 35 68 106 122 124 127 130 131 132 130 128 129 129 128 126 123 118 115 113 112 111 109 107 105 102 100 97 96 94 89 86 84
217 223 224 225 222 213 205 208 216 215 213 207 196 189 186 185 188 191 192 195 197 198 200 201 202 204 204 205 206 207 209 212 215 218 221 224 226 227 227 228 231 236 245 250 256 265 276 286 296 305 311 317 333 1 59 138 153 151 147 149 152 149 144 140 140 140 138 136 130 125 121 119 119 120 119 119 117 114 111 109 106 102 96 89 84
219 222 222 223 223 217 206 204 211 211 211 213 209 201 196 195 197 198 198 200 202 204 205 206 206 207 208 207 208 209 210 212 215 217 220 222 224 224 223 223 224 227 232 238 244 253 260 269 276 282 287 292 299 308 289 186 182 177 173 173 172 167 160 153 151 153 152 148 144 140 136 134 134 135 132 130 130 127 123 121 118 113 105 95 84
221 223 223 223 224 223 215 210 212 212 208 209 208 204 200 203 208 207 204 205 207 208 210 212 212 212 212 211 211 211 212 213 215 216 218 220 221 222 222 222 224 228 232 239 247 253 256 259 262 264 267 271 273 271 248 210 201 199 198 198 194 186 180 180 180 177 173 169 167 166 164 165 164 160 161 161 151 140 136 137 134 129 121 108 98
222 222 222 223 223 223 222 218 217 216 214 211 209 205 203 206 210 211 212 213 212 212 214 214 216 218 217 218 217 217 218 219 220 221 222 224 226 228 229 230 232 235 239 243 247 250 252 253 254 254 256 258 260 260 246 219 211 212 210 211 209 204 206 214 213 203 202 206 208 212 212 202 197 200 206 197 187 186 180 169 164 175 191 173 147
224 223 223 223 222 221 222 222 220 219 218 216 213 210 207 207 207 208 220 225 220 217 217 216 217 219 220 221 221 221 223 225 226 226 227 229 231 232 233 235 237 238 240 242 243 245 247 250 252 253 252 250 253 256 247 228 219 217 216 218 220 221 225 232 231 228 231 237 237 244 249 238 228 231 232 216 217 237 230 204 248 292 275 246 211
226 226 225 224 223 222 221 223 224 222 221 220 219 216 213 211 206 202 214 225 225 222 219 218 218 219 220 221 221 222 224 226 228 229 229 231 234 233 233 235 237 238 239 240 242 243 245 248 249 247 243 241 241 244 242 234 226 224 224 225 228 234 238 241 242 243 246 247 247 253 261 259 248 244 249 246 238 245 243 232 258 288 282 263 245
226 227 228 227 225 223 222 223 224 225 225 224 224 223 221 220 214 206 208 215 221 223 222 220 220 221 222 223 224 225 226 225 227 229 230 233 236 235 234 236 237 238 239 239 240 241 242 246 245 240 236 235 237 239 239 235 231 231 233 233 234 238 244 248 249 248 248 249 251 255 260 262 259 253 255 255 249 250 255 254 266 282 282 271 260
225 226 228 228 227 226 225 225 224 226 227 227 227 226 226 227 222 216 213 213 216 220 222 221 220 221 223 225 226 230 230 229 229 230 229 232 234 234 235 236 238 239 239 238 238 239 239 242 242 238 236 238 242 245 243 240 239 238 238 239 239 241 245 249 251 251 251 252 252 255 259 260 259 259 259 257 257 260 261 261 268 279 282 272 262
226 227 228 229 230 229 228 228 227 226 227 229 229 228 228 231 229 225 223 222 220 221 222 223 225 224 224 224 227 231 232 232 233 234 233 233 233 232 232 234 238 242 241 238 239 240 239 239 241 240 240 242 246 247 244 242 243 246 249 250 248 245 245 247 250 252 254 257 258 261 264 262 259 259 262 261 261 264 263 262 267 275 281 278 271
227 229 228 229 231 232 231 231 231 229 229 229 231 230 231 233 233 229 228 229 229 225 222 224 228 229 226 225 228 231 233 234 235 236 235 234 234 234 233 234 237 241 242 241 240 242 243 242 242 242 242 242 244 245 244 243 243 247 252 255 254 252 250 251 252 253 255 258 261 262 264 265 263 262 266 267 267 267 267 267 269 273 278 281 279
228 229 229 229 231 233 233 233 233 232 231 230 231 231 233 235 234 231 232 234 233 230 226 224 227 229 228 227 229 234 237 237 237 238 237 236 236 236 236 237 238 240 242 243 243 243 246 248 248 248 248 247 247 247 246 245 245 247 249 252 254 255 254 255 257 257 255 257 260 262 264 268 269 269 270 271 272 273 273 272 273 275 277 279 280
228 230 230 230 232 233 234 234 234 234 233 233 233 232 233 235 235 234 235 236 236 236 233 230 228 228 230 231 233 239 242 240 239 240 240 239 238 238 238 239 242 242 243 244 244 244 246 250 251 250 250 251 251 252 251 248 247 249 250 252 254 254 253 256 260 260 258 257 259 261 263 266 267 267 270 273 275 277 278 276 276 277 277 277 278
227 229 230 230 231 233 235 235 235 235 235 235 235 234 234 235 235 235 235 235 238 240 238 235 233 231 232 235 237 241 244 245 245 245 245 244 242 241 241 241 243 247 247 247 246 245 243 245 247 246 246 248 251 254 256 256 254 253 253 255 256 256 256 259 262 262 262 262 262 261 261 262 263 265 268 271 273 276 278 278 278 278 277 277 279
228 229 229 229 229 231 233 235 235 235 236 237 236 236 235 234 235 236 236 236 240 242 240 238 238 235 234 237 240 242 243 245 248 249 249 249 248 247 247 246 245 246 250 251 252 250 246 245 246 246 246 248 251 254 257 260 261 261 260 260 260 260 258 260 263 263 262 263 265 264 263 262 264 267 268 269 270 273 275 276 277 278 277 277 279
230 229 228 229 229 229 231 234 234 234 236 237 237 237 236 236 235 236 237 238 241 243 242 242 241 237 235 236 238 241 242 242 244 247 247 248 248 248 249 250 249 248 249 252 254 255 253 251 250 250 249 249 250 252 253 256 258 261 263 264 264 263 261 261 262 261 261 262 264 264 264 264 266 268 269 270 270 271 272 273 274 276 276 277 279
232 231 229 229 230 230 231 233 234 233 234 236 238 238 238 237 236 235 237 239 242 243 242 244 244 241 237 236 236 239 242 243 244 245 245 245 246 245 245 247 249 249 249 249 249 251 252 252 252 252 252 252 252 254 254 253 254 257 260 264 265 265 264 263 262 260 261 262 264 265 265 265 267 269 271 273 274 273 273 272 272 272 272 274 277
233 233 231 230 230 231 232 233 235 235 234 235 238 239 239 238 237 236 236 238 240 241 240 242 245 243 238 238 238 238 241 244 245 247 246 246 247 246 244 244 245 247 247 247 247 247 248 250 250 250 250 251 253 255 256 255 254 255 257 260 263 265 265 264 263 261 261 262 264 265 264 265 269 269 270 272 274 274 273 272 272 272 272 273 275
234 234 233 232 232 232 232 234 235 237 236 236 237 239 240 239 238 236 235 235 238 238 236 238 242 242 238 239 240 240 242 243 243 244 246 248 248 247 246 245 244 245 247 249 249 249 249 250 250 250 250 250 251 253 254 255 255 256 257 258 260 262 263 264 264 263 262 262 264 265 264 266 270 270 268 268 268 269 271 272 273 272 272 273 275
234 235 234 234 234 234 234 235 236 237 238 238 238 239 240 240 239 237 235 234 236 237 235 236 240 242 241 241 242 242 244 244 242 241 243 245 247 247 248 247 245 245 248 250 251 250 250 250 251 251 251 251 251 252 254 255 256 258 259 260 261 261 262 263 265 265 264 263 263 264 265 267 269 270 268 266 266 268 270 271 271 272 274 276 277
232 235 236 235 235 235 236 237 238 238 238 239 239 240 240 241 241 240 238 238 238 238 238 239 242 244 245 245 245 245 246 246 245 243 243 245 246 247 247 248 247 246 247 249 250 251 251 251 250 251 252 252 252 252 253 255 257 259 261 262 263 264 264 264 265 266 266 265 264 264 265 266 267 269 269 267 267 268 270 270 271 274 275 276 276
227 232 235 236 236 236 236 238 239 240 239 239 239 240 241 242 242 241 241 241 241 241 242 244 246 247 247 248 248 248 249 248 248 247 245 246 247 248 247 247 247 247 248 249 250 250 251 252 252 252 252 253 254 255 255 256 258 260 261 262 263 264 265 265 266 268 268 267 265 265 265 264 265 268 270 268 266 267 269 270 271 272 272 272 273
224 228 232 235 237 238 237 238 239 240 240 240 240 239 241 242 244 243 243 243 244 244 246 248 249 250 250 250 250 251 251 251 251 251 250 249 250 250 250 249 249 249 250 251 251 250 251 252 253 254 254 255 256 257 257 258 259 260 261 262 262 263 263 264 266 267 268 268 267 266 265 264 265 267 268 267 266 265 266 268 270 270 271 273 274
224 225 229 232 236 238 239 238 238 239 239 240 241 241 241 242 243 245 245 245 245 246 248 249 250 251 252 252 252 252 253 253 253 253 253 252 252 253 252 251 251 251 252 252 252 251 251 252 253 254 255 256 257 257 258 259 260 260 261 261 262 262 263 264 264 266 267 267 268 267 266 265 265 265 266 266 266 266 266 267 269 271 274 276 277
226 226 227 230 233 235 237 239 239 239 238 238 239 241 242 242 243 245 246 247 247 248 249 250 251 251 252 253 253 253 253 253 254 254 254 254 253 253 253 252 252 253 253 253 253 252 253 253 253 253 254 255 256 257 258 258 259 260 261 262 262 262 263 263 264 264 265 265 266 266 266 265 265 265 265 265 266 266 267 268 269 271 273 275 276
229 229 228 228 230 232 235 237 239 239 239 238 237 239 240 242 243 244 246 248 249 250 250 251 252 252 252 253 253 254 254 254 254 254 255 255 254 254 254 254 254 254 254 255 255 255 255 255 255 254 254 255 257 258 258 259 260 261 261 262 262 262 262 262 263 263 264 264 264 265 265 265 266 266 266 266 266 267 269 270 270 272 273 274 274
230 231 231 230 229 230 232 234 237 239 240 239 237 237 238 240 241 242 244 246 248 250 251 252 253 253 253 253 253 254 255 255 256 256 255 255 255 255 255 256 256 256 256 256 256 257 258 258 258 256 255 256 258 259 259 260 261 262 262 262 263 263 263 263 262 263 263 264 264 264 264 265 266 266 267 267 268 268 269 270 271 272 273 274 275
231 231 233 233 231 230 230 232 234 237 239 240 239 238 238 239 241 241 242 244 246 248 249 251 253 254 254 255 254 253 254 254 255 256 256 256 256 256 255 256 257 257 258 258 258 258 259 259 260 259 258 258 258 259 260 261 262 263 263 264 264 264 264 263 263 263 263 263 263 263 264 264 264 265 266 267 268 269 269 270 271 272 274 275 275
232 232 233 234 234 232 231 231 232 234 236 239 240 240 239 239 240 242 242 243 244 245 247 249 250 252 253 254 255 255 254 254 254 254 255 255 256 257 257 256 257 258 259 259 260 260 261 261 261 261 260 260 260 260 261 262 262 263 263 264 264 264 264 264 263 263 263 263 262 262 262 263 264 264 265 266 266 267 268 269 270 272 273 274 275
235 234 234 235 236 235 233 232 232 233 234 235 237 239 240 240 240 241 242 243 244 245 245 247 248 250 251 252 254 255 255 255 255 254 254 254 254 255 257 257 257 257 258 259 260 261 261 262 262 262 262 262 262 262 263 263 263 263 263 264 264 264 264 264 264 264 264 263 263 262 262 262 263 263 264 265 266 267 268 269 270 271 273 274 275
237 236 235 235 236 237 236 234 233 233 233 234 234 236 238 239 240 240 241 243 244 244 245 246 247 248 249 250 251 253 254 255 256 255 255 254 254 253 254 256 257 257 258 258 259 260 261 261 262 262 263 263 263 264 264 264 264 264 264 264 265 265 265 265 265 265 265 265 264 264 263 263 263 263 264 265 266 267 268 269 270 271 272 273 274
240 239 238 237 236 237 238 237 235 233 234 235 235 235 236 237 238 239 240 241 243 244 245 246 246 247 248 249 250 251 252 254 255 255 255 255 254 254 252 252 253 255 256 257 258 258 259 260 261 262 262 263 263 263 264 265 265 265 265 265 265 265 266 266 266 266 266 266 266 265 265 265 264 265 265 265 266 266 267 268 269 270 272 273 274
240 241 240 239 238 238 238 239 238 237 235 235 236 237 236 236 237 238 239 240 241 242 244 245 246 247 247 249 250 250 250 251 253 254 255 255 255 255 254 253 252 251 252 254 255 256 256 257 258 259 260 261 262 263 263 264 265 266 266 266 267 267 266 266 265 265 265 266 266 266 266 266 266 266 266 266 267 267 268 269 270 271 272 273 273
240 241 241 241 241 240 239 239 240 240 239 238 238 238 239 238 238 237 238 239 240 241 242 243 245 246 247 248 249 250 250 251 252 253 254 255 255 256 256 256 255 253 252 251 252 253 254 255 256 256 257 258 260 262 263 264 265 265 266 266 267 267 267 267 266 266 265 265 265 265 266 266 266 266 267 267 267 268 268 269 270 271 271 272 272
240 241 242 242 242 242 242 241 241 241 241 241 240 240 241 241 241 240 239 239 240 240 241 242 243 244 246 247 248 249 250 251 252 253 254 255 256 256 256 256 256 256 255 254 253 253 253 254 255 256 257 258 259 260 261 263 264 265 266 266 267 267 267 267 267 267 267 266 266 266 266 266 266 267 267 268 268 269 269 270 270 271 271 272 272
241 241 242 242 243 243 243 244 244 243 243 243 243 243 242 243 243 243 242 241 241 241 241 241 242 242 244 246 247 248 249 250 251 252 253 254 255 256 256 256 256 257 257 257 257 256 255 255 255 255 256 258 259 260 261 262 264 265 265 266 266 267 267 267 268 268 268 268 267 267 267 267 267 267 267 268 269 269 270 270 271 271 272 272 272
244 243 242 242 243 244 245 245 245 246 245 245 245 245 245 244 244 245 245 245 244 243 243 243 243 243 243 244 245 247 248 248 249 250 252 253 253 254 256 257 257 258 258 258 258 258 258 258 257 257 256 257 257 258 260 261 263 264 265 266 266 267 267 267 268 268 268 268 269 269 269 269 269 269 269 270 270 270 271 271 272 272 273 273 274
248 247 246 245 244 245 246 246 247 247 247 247 247 247 247 247 246 246 247 247 247 247 246 245 245 244 244 244 245 246 246 247 248 249 250 251 252 253 254 255 256 257 258 259 259 259 259 259 259 259 259 259 258 258 258 258 259 261 262 264 265 267 267 268 268 268 268 269 269 270 270 271 271 271 272 273 273 273 274 274 274 275 275 276 277
250 250 250 249 248 247 246 247 247 248 248 249 249 249 249 249 249 248 248 248 248 249 249 248 248 247 247 246 246 246 247 247 247 247 248 249 251 252 254 255 255 256 257 258 259 260 260 261 261 261 261 261 261 260 260 260 259 260 260 261 261 263 264 265 266 267 268 269 269 270 271 271 272 272 273 274 274 275 275 276 276 277 277 278 278
251 252 252 252 251 251 249 249 248 249 249 250 250 250 250 250 250 250 250 250 250 250 250 250 250 250 250 249 248 248 248 248 248 248 248 248 249 251 252 254 255 255 256 257 258 258 259 260 260 261 261 261 261 262 262 262 262 262 262 262 261 261 261 261 262 263 264 265 266 267 268 269 270 271 271 272 273 274 275 275 276 276 277 277 277
253 253 254 254 254 254 253 253 252 251 251 251 251 251 251 251 251 251 251 252 252 252 252 251 251 252 252 252 252 251 250 250 249 249 249 249 249 250 251 252 253 254 255 256 257 257 258 259 259 259 259 260 260 261 261 262 262 263 263 263 263 263 263 262 262 262 262 262 263 264 265 266 267 267 268 269 270 271 271 272 273 274 274 274 274
254 255 255 256 256 256 256 256 256 255 254 253 253 252 252 252 252 252 252 253 253 253 253 253 253 253 253 253 253 253 252 252 251 251 251 251 251 251 251 251 252 253 254 255 256 257 258 258 259 259 259 259 259 260 260 260 261 261 261 262 262 263 264 264 264 264 264 263 263 264 264 265 266 266 267 268 268 268 269 269 269 270 270 270 270
256 257 257 257 258 258 258 258 258 258 258 257 256 255 255 254 254 254 253 253 253 254 254 254 254 254 254 254 254 254 253 253 253 253 253 254 254 253 253 253 253 254 254 255 256 257 258 258 259 259 260 260 260 260 260 260 260 260 260 260 260 261 262 263 263 264 264 265 265 265 265 266 266 267 268 268 269 269 269 269 269 269 269 269 269
258 258 259 259 259 260 260 260 260 260 260 260 259 258 258 257 256 256 255 255 255 255 255 255 255 255 255 255 255 254 254 254 254 254 254 254 255 255 255 256 256 256 256 256 257 257 258 258 259 259 260 260 260 260 260 260 260 261 261 260 260 260 261 261 261 262 263 264 264 265 265 266 266 267 267 268 268 269 269 269 269 270 270 270 270
260 260 260 260 261 261 261 261 262 262 262 261 261 261 260 260 259 258 258 257 257 256 256 256 256 256 256 256 256 255 255 255 255 255 255 255 256 256 256 256 257 257 258 258 259 259 259 259 260 260 260 261 261 261 261 261 261 261 261 262 262 262 262 262 261 262 262 263 263 264 264 265 266 266 267 267 268 268 269 269 269 269 270 270 270
261 261 261 262 262 263 263 263 264 264 264 264 264 264 263 263 262 261 260 260 259 259 258 258 258 257 257 258 258 257 257 257 257 257 257 257 257 258 258 258 258 258 258 258 259 259 260 260 261 261 261 262 262 262 262 262 263 263 263 264 264 264 264 264 263 263 263 263 263 264 264 265 265 266 266 267 267 268 268 269 269 269 269 270 270
264 264 265 265 266 266 267 267 267 267 268 268 268 267 267 266 266 265 264 263 262 261 261 260 259 259 259 259 260 260 260 260 260 259 259 259 259 260 260 260 260 260 260 260 259 259 259 260 260 261 261 262 262 262 263 263 263 264 264 265 266 266 266 266 266 266 265 265 265 265 265 265 266 266 266 267 267 268 268 268 269 269 269 270 270
268 269 270 270 271 271 271 271 271 271 271 271 271 270 270 270 269 269 268 267 266 265 264 263 263 262 262 262 262 262 262 262 262 262 262 262 262 262 262 262 262 263 263 263 262 262 261 261 261 261 261 262 262 263 263 263 263 263 263 264 264 265 265 266 266 266 266 266 266 266 266 267 267 267 268 268 268 268 268 268 269 269 269 269 270
Height
10997 10997 10997 10998 10998 10999 11000 11000 11000 11000 11000 11001 11001 11002 11002 11003 11003 11004 11005 11005 11006 11007 11008 11009 11010 11011 11011 11012 11013 11013 11014 11014 11015 11015 11016 11016 11016 11016 11016 11016 11016 11016 11015 11015 11015 11014 11013 11013 11012 11011 11010 11010 11009 11008 11007 11007 11007 11007 11006 11006 11006 11006 11006 11005 11005 11006 11006 11006 11006 11006 11006 11006 11006 11006 11005 11005 11005 11005 11004 11004 11004 11004 11003 11002 11001
10996 10997 10997 10997 10997 10998 10999 11000 11001 11001 11001 11001 11002 11002 11003 11003 11004 11005 11005 11006 11006 11007 11008 11009 11009 11010 11011 11012 11013 11013 11014 11014 11015 11015 11015 11016 11016 11016 11016 11016 11016 11016 11016 11016 11015 11015 11014 11014 11013 11012 11012 11011 11010 11010 11009 11009 11009 11009 11008 11008 11008 11008 11008 11008 11007 11007 11008 11008 11008 11009 11009 11009 11008 11008 11007 11007 11007 11006 11006 11005 11005 11006 11005 11004 11003
10994 10995 10995 10995 10996 10997 10998 11000 11001 11001 11002 11002 11002 11002 11003 11003 11004 11004 11005 11006 11006 11007 11008 11009 11009 11010 11011 11011 11012 11013 11013 11014 11014 11015 11015 11015 11016 11016 11016 11016 11016 11016 11016 11016 11016 11016 11015 11015 11014 11013 11013 11012 11012 11011 11010 11010 11010 11010 11010 11010 11010 11010 11009 11009 11009 11009 11009 11009 11009 11010 11010 11010 11010 11009 11009 11009 11008 11008 11007 11006 11006 11006 11006 11005 11004
10987 10990 10991 10992 10993 10995 10996 10999 11000 11001 11002 11002 11002 11002 11002 11002 11003 11003 11004 11005 11006 11006 11007 11008 11009 11010 11010 11011 11012 11012 11013 11014 11014 11014 11015 11015 11015 11015 11016 11016 11016 11016 11016 11016 11016 11016 11015 11015 11015 11014 11014 11013 11013 11012 11011 11011 11011 11011 11011 11011 11011 11011 11010 11010 11010 11010 11010 11010 11010 11010 11011 11011 11011 11011 11011 11010 11010 11009 11008 11007 11007 11007 11007 11006 11006
10982 10984 10988 10990 10991 10992 10994 10996 11000 11002 11002 11003 11002 11002 11001 11001 11002 11002 11003 11003 11004 11005 11006 11007 11008 11009 11010 11010 11011 11012 11012 11013 11013 11013 11014 11014 11014 11015 11015 11015 11015 11015 11015 11015 11015 11015 11015 11015 11015 11015 11015 11014 11014 11013 11012 11012 11012 11012 11012 11011 11011 11011 11011 11011 11011 11011 11011 11011 11011 11012 11012 11012 11012 11012 11012 11011 11010 11009 11009 11008 11007 11007 11006 11006 11006
10978 10980 10984 10987 10989 10989 10988 10990 10995 10998 10999 10999 10999 10999 10999 11000 11001 11001 11001 11001 11002 11003 11004 11005 11006 11007 11008 11009 11010 11010 11011 11011 11012 11012 11013 11013 11013 11014 11014 11014 11014 11014 11014 11014 11014 11014 11014 11015 11015 11015 11015 11014 11014 11013 11013 11013 11013 11012 11012 11012 11012 11011 11011 11012 11012 11012 11012 11012 11012 11012 11013 11013 11013 11013 11013 11012 11011 11010 11010 11009 11008 11007 11006 11005 11005
10975 10977 10980 10983 10985 10987 10986 10985 10989 10993 10994 10994 10994 10994 10994 10997 10999 10999 10999 11000 11000 11001 11002 11003 11004 11005 11006 11007 11008 11008 11009 11010 11010 11010 11011 11011 11012 11012 11012 11013 11013 11013 11013 11013 11013 11013 11013 11014 11014 11015 11014 11014 11013 11012 11012 11011 11012 11012 11012 11012 11012 11013 11013 11013 11013 11013 11013 11013 11013 11013 11013 11013 11013 11013 11013 11012 11011 11011 11010 11010 11009 11007 11006 11005 11004
10972 10974 10976 10979 10981 10984 10984 10984 10986 10989 10991 10991 10991 10991 10990 10992 10994 10995 10997 10997 10998 10999 10999 11000 11002 11003 11004 11005 11005 11007 11007 11008 11008 11009 11009 11009 11010 11010 11011 11011 11011 11011 11012 11012 11012 11012 11013 11013 11013 11014 11014 11013 11013 11012 11011 11011 11011 11012 11012 11012 11012 11013 11013 11013 11013 11013 11013 11013 11013 11013 11013 11013 11013 11013 11012 11012 11011 11011 11011 11010 11010 11009 11007 11005 11004
10969 10971 10973 10975 10978 10979 10980 10981 10983 10985 10987 10988 10988 10987 10987 10986 10988 10991 10994 10996 10996 10996 10997 10998 10999 11000 11001 11002 11003 11004 11005 11006 11006 11006 11006 11007 11007 11008 11009 11010 11010 11010 11011 11011 11011 11011 11012 11012 11012 11013 11013 11013 11012 11012 11012 11011 11011 11012 11012 11012 11012 11012 11013 11013 11013 11012 11013 11013 11013 11013 11013 11013 11012 11012 11011 11011 11010 11010 11010 11010 11010 11009 11008 11007 11005
10966 10968 10970 10972 10974 10975 10976 10977 10979 10981 10983 10984 10984 10984 10984 10984 10983 10984 10987 10991 10993 10993 10993 10994 10995 10996 10997 10999 11000 11001 11002 11003 11004 11004 11005 11005 11006 11007 11008 11008 11009 11009 11009 11010 11010 11010 11011 11010 11011 11011 11011 11011 11011 11011 11011 11011 11011 11011 11011 11011 11011 11011 11011 11012 11012 11011 11011 11011 11011 11011 11012 11012 11011 11010 11010 11009 11009 11009 11009 11009 11009 11008 11007 11007 11006
10962 10965 10967 10968 10970 10971 10972 10974 10975 10977 10978 10979 10980 10982 10982 10982 10981 10979 10979 10982 10985 10988 10989 10990 10991 10992 10993 10995 10997 10997 10999 11000 11001 11002 11003 11004 11005 11006 11007 11007 11007 11007 11008 11008 11009 11009 11009 11009 11009 11009 11010 11009 11009 11009 11009 11009 11009 11009 11009 11009 11009 11010 11010 11010 11010 11010 11010 11010 11009 11010 11010 11010 11010 11009 11008 11008 11008 11007 11007 11007 11007 11006 11006 11006 11005
10957 10960 10961 10963 10965 10967 10968 10970 10971 10972 10973 10974 10976 10978 10978 10978 10979 10978 10977 10978 10979 10981 10984 10986 10987 10988 10989 10991 10993 10994 10996 10998 10998 10999 11000 11001 11003 11004 11004 11004 11004 11004 11005 11005 11005 11006 11007 11007 11008 11008 11008 11008 11008 11008 11008 11008 11008 11007 11007 11007 11007 11008 11008 11008 11008 11008 11008 11009 11009 11009 11009 11009 11008 11007 11007 11007 11007 11006 11006 11005 11005 11005 11004 11004 11003
10952 10954 10956 10958 10960 10961 10963 10965 10967 10969 10970 10971 10972 10973 10973 10974 10975 10976 10976 10977 10977 10978 10980 10982 10984 10985 10986 10988 10990 10991 10993 10995 10995 10996 10997 10998 10999 11000 11000 11001 11001 11001 11002 11002 11003 11003 11005 11005 11005 11006 11006 11006 11006 11007 11007 11006 11006 11005 11005 11005 11006 11006 11006 11006 11006 11006 11007 11007 11007 11007 11007 11007 11006 11006 11005 11005 11005 11004 11003 11003 11003 11003 11002 11001 11001
10946 10948 10951 10953 10954 10956 10959 10961 10964 10965 10966 10966 10967 10967 10969 10970 10972 10973 10974 10975 10975 10976 10977 10978 10980 10982 10983 10985 10987 10988 10990 10992 10993 10993 10994 10994 10996 10996 10997 10997 10997 10998 10999 10999 11000 11001 11002 11002 11003 11003 11003 11004 11003 11003 11003 11003 11003 11003 11003 11003 11004 11004 11004 11004 11003 11004 11004 11004 11004 11005 11004 11004 11004 11004 11003 11003 11002 11002 11001 11001 11001 11000 11000 10999 10999
10940 10942 10944 10947 10949 10951 10954 10956 10958 10959 10960 10961 10962 10963 10965 10966 10968 10970 10971 10972 10972 10973 10973 10973 10975 10978 10980 10982 10984 10985 10986 10987 10988 10988 10989 10990 10991 10992 10993 10994 10994 10994 10995 10996 10997 10998 10999 10999 11000 11000 11000 11000 11000 10999 10999 10999 10999 10999 11000 11000 11001 11001 11001 11001 11000 11000 11001 11001 11001 11001 11002 11002 11002 11002 11001 11001 11001 11000 11000 10999 10998 10998 10998 10997 10996
10933 10935 10938 10941 10943 10945 10947 10949 10951 10953 10955 10956 10957 10958 10960 10962 10964 10966 10968 10968 10969 10971 10971 10972 10974 10976 10978 10980 10982 10982 10981 10981 10983 10983 10984 10986 10987 10988 10989 10990 10990 10991 10991 10992 10993 10995 10995 10996 10997 10996 10996 10995 10994 10994 10994 10995 10995 10996 10996 10996 10997 10997 10998 10998 10997 10997 10997 10997 10998 10998 10999 10999 10998 10998 10999 10999 10999 10999 10998 10997 10996 10995 10995 10994 10994
10926 10928 10930 10933 10935 10937 10939 10941 10943 10946 10948 10950 10952 10954 10956 10958 10960 10962 10964 10964 10965 10967 10969 10970 10972 10974 10976 10978 10979 10977 10975 10975 10978 10979 10980 10981 10983 10984 10985 10986 10986 10987 10987 10988 10988 10990 10991 10991 10990 10990 10989 10988 10988 10990 10991 10991 10992 10993 10993 10993 10993 10993 10994 10995 10994 10994 10994 10994 10994 10994 10995 10995 10994 10994 10995 10995 10996 10996 10995 10993 10992 10992 10991 10991 10991
10918 10918 10921 10924 10927 10930 10932 10934 10936 10939 10941 10943 10945 10948 10951 10953 10955 10957 10958 10960 10961 10963 10965 10966 10968 10970 10973 10974 10973 10970 10969 10971 10972 10974 10975 10976 10978 10979 10981 10981 10981 10981 10982 10983 10984 10985 10986 10985 10985 10984 10984 10984 10985 10987 10988 10989 10989 10989 10990 10990 10989 10990 10991 10991 10990 10990 10990 10991 10990 10990 10990 10990 10989 10988 10989 10990 10993 10993 10990 10988 10988 10989 10987 10987 10986
10907 10906 10912 10918 10920 10923 10925 10927 10929 10932 10934 10936 10938 10941 10945 10947 10949 10951 10953 10955 10956 10958 10960 10961 10963 10965 10966 10966 10965 10963 10964 10965 10967 10968 10970 10971 10972 10974 10975 10976 10975 10975 10977 10978 10978 10980 10981 10981 10981 10980 10980 10980 10981 10982 10984 10985 10985 10985 10985 10985 10985 10986 10987 10987 10986 10985 10986 10986 10986 10986 10986 10985 10984 10983 10983 10984 10987 10988 10985 10983 10984 10984 10982 10982 10982
10896 10898 10906 10911 10913 10916 10918 10920 10922 10925 10927 10929 10932 10935 10938 10941 10943 10945 10947 10948 10950 10952 10954 10955 10957 10959 10960 10959 10958 10957 10958 10959 10961 10962 10964 10965 10966 10968 10969 10970 10969 10969 10970 10971 10972 10973 10974 10974 10975 10975 10975 10976 10976 10977 10978 10979 10980 10980 10980 10980 10980 10980 10981 10982 10981 10981 10981 10980 10981 10981 10981 10980 10980 10979 10979 10979 10980 10981 10980 10979 10980 10978 10977 10977 10977
10888 10891 10898 10902 10905 10908 10911 10913 10916 10918 10921 10923 10925 10928 10931 10933 10936 10938 10940 10941 10943 10945 10947 10949 10950 10953 10953 10952 10951 10951 10952 10953 10954 10956 10957 10958 10960 10962 10963 10963 10963 10963 10963 10963 10965 10967 10967 10967 10968 10968 10969 10970 10971 10971 10972 10973 10974 10974 10975 10975 10974 10974 10975 10975 10976 10976 10975 10975 10975 10975 10975 10975 10975 10975 10975 10974 10974 10973 10973 10974 10974 10973 10972 10972 10971
10880 10884 10889 10893 10897 10900 10903 10906 10909 10911 10914 10916 10918 10920 10922 10925 10928 10930 10933 10934 10936 10938 10940 10942 10943 10945 10945 10945 10945 10945 10945 10945 10945 10948 10950 10950 10952 10955 10955 10955 10956 10956 10956 10957 10958 10960 10961 10961 10961 10962 10963 10964 10964 10965 10965 10966 10966 10967 10968 10968 10968 10968 10969 10968 10969 10969 10969 10969 10969 10969 10969 10969 10970 10969 10969 10969 10968 10967 10967 10968 10968 10967 10966 10966 10965
10873 10877 10882 10885 10888 10892 10895 10898 10901 10903 10906 10908 10910 10912 10914 10916 10919 10922 10924 10926 10928 10930 10932 10934 10935 10937 10938 10938 10939 10938 10937 10936 10936 10940 10943 10944 10945 10948 10948 10948 10950 10951 10950 10950 10951 10953 10954 10955 10955 10956 10957 10958 10959 10959 10958 10959 10959 10960 10961 10961 10962 10962 10963 10962 10962 10963 10963 10963 10962 10962 10962 10963 10964 10963 10963 10963 10962 10961 10960 10961 10961 10960 10960 10959 10958
10865 10868 10872 10876 10880 10883 10886 10890 10892 10895 10898 10900 10902 10903 10905 10907 10909 10912 10915 10917 10919 10921 10923 10924 10927 10929 10930 10930 10931 10931 10930 10927 10929 10934 10937 10937 10938 10940 10941 10941 10943 10944 10944 10944 10944 10945 10946 10947 10948 10949 10950 10951 10952 10952 10952 10953 10953 10953 10954 10955 10955 10956 10956 10956 10956 10956 10955 10956 10956 10955 10955 10956 10956 10956 10956 10956 10956 10955 10954 10954 10955 10954 10952 10950 10950
10858 10860 10862 10866 10870 10874 10878 10881 10883 10886 10888 10891 10893 10895 10896 10897 10900 10902 10905 10907 10909 10911 10913 10914 10916 10919 10921 10922 10922 10923 10922 10922 10922 10925 10928 10929 10930 10931 10932 10934 10935 10936 10936 10936 10936 10937 10938 10939 10941 10942 10943 10943 10944 10944 10945 10946 10946 10946 10947 10948 10948 10949 10949 10949 10949 10949 10949 10949 10948 10948 10948 10948 10948 10949 10949 10949 10949 10949 10948 10947 10948 10946 10943 10942 10943
10849 10851 10853 10856 10860 10865 10869 10872 10875 10877 10879 10881 10884 10886 10888 10889 10890 10892 10895 10898 10899 10901 10902 10904 10906 10908 10911 10913 10913 10913 10914 10915 10915 10917 10919 10920 10921 10922 10924 10925 10926 10927 10928 10929 10929 10929 10930 10931 10933 10934 10935 10935 10936 10936 10936 10937 10937 10938 10939 10940 10941 10942 10942 10941 10941 10941 10941 10941 10941 10940 10940 10940 10940 10941 10941 10941 10942 10942 10942 10940 10939 10938 10935 10934 10936
10840 10843 10846 10848 10851 10855 10859 10863 10866 10869 10871 10873 10875 10877 10879 10881 10881 10882 10884 10886 10889 10890 10892 10893 10895 10898 10900 10902 10903 10904 10905 10906 10908 10908 10910 10911 10913 10914 10915 10916 10917 10918 10919 10920 10920 10921 10922 10923 10923 10924 10925 10926 10927 10927 10927 10927 10928 10929 10930 10932 10933 10934 10934 10933 10933 10933 10933 10933 10933 10932 10932 10932 10932 10933 10933 10933 10933 10934 10934 10933 10932 10930 10928 10927 10927
10829 10834 10837 10840 10842 10845 10849 10852 10856 10859 10861 10864 10866 10867 10869 10871 10873 10873 10873 10875 10877 10879 10881 10882 10884 10887 10889 10891 10892 10894 10895 10897 10899 10900 10901 10902 10904 10905 10906 10907 10908 10909 10910 10910 10911 10912 10913 10914 10914 10915 10916 10917 10917 10918 10918 10918 10919 10920 10921 10922 10923 10924 10925 10925 10925 10925 10925 10925 10924 10924 10923 10923 10924 10924 10924 10925 10925 10925 10924 10924 10923 10922 10922 10920 10918
10818 10822 10827 10830 10833 10836 10838 10841 10844 10848 10851 10853 10856 10858 10859 10861 10863 10864 10865 10865 10866 10868 10870 10871 10873 10875 10878 10880 10881 10882 10884 10886 10888 10890 10891 10893 10894 10895 10897 10898 10899 10900 10900 10900 10901 10903 10904 10904 10905 10906 10908 10909 10908 10909 10909 10910 10910 10911 10912 10912 10914 10915 10915 10915 10916 10915 10916 10916 10915 10915 10915 10915 10914 10915 10915 10916 10916 10916 10915 10915 10914 10914 10913 10911 10910
10808 10811 10815 10819 10823 10826 10829 10831 10833 10836 10840 10843 10845 10848 10850 10851 10853 10854 10855 10857 10857 10858 10859 10860 10862 10863 10866 10868 10870 10872 10873 10874 10876 10878 10880 10882 10883 10885 10886 10887 10888 10889 10890 10890 10891 10892 10893 10894 10895 10897 10899 10899 10899 10900 10901 10901 10901 10902 10902 10903 10904 10905 10905 10906 10906 10906 10906 10906 10906 10907 10907 10906 10906 10906 10906 10907 10907 10907 10906 10905 10905 10905 10903 10901 10900
10797 10800 10803 10807 10811 10815 10819 10821 10823 10825 10828 10831 10834 10837 10839 10841 10843 10844 10845 10846 10847 10848 10850 10851 10852 10853 10854 10855 10858 10860 10862 10864 10865 10867 10869 10870 10872 10874 10875 10876 10877 10878 10878 10879 10881 10881 10882 10883 10885 10886 10888 10889 10889 10890 10891 10891 10892 10892 10892 10893 10894 10894 10895 10895 10896 10896 10896 10897 10897 10897 10897 10897 10897 10897 10897 10897 10897 10897 10897 10896 10895 10895 10894 10891 10890
10785 10789 10792 10795 10799 10803 10807 10810 10813 10815 10817 10819 10822 10825 10828 10830 10832 10833 10833 10834 10836 10838 10840 10841 10842 10843 10844 10845 10846 10847 10849 10852 10854 10856 10858 10860 10861 10862 10863 10865 10866 10867 10867 10868 10869 10869 10870 10871 10873 10874 10876 10877 10878 10879 10880 10881 10881 10881 10882 10883 10884 10884 10884 10885 10885 10885 10885 10885 10886 10886 10887 10888 10888 10888 10888 10887 10887 10887 10886 10886 10885 10885 10884 10882 10880
10773 10777 10780 10783 10786 10790 10794 10798 10801 10804 10806 10808 10810 10812 10815 10818 10821 10822 10822 10823 10825 10827 10829 10830 10831 10832 10834 10834 10835 10836 10837 10839 10841 10844 10847 10849 10850 10851 10851 10852 10854 10855 10856 10857 10858 10858 10859 10860 10860 10861 10863 10864 10866 10868 10869 10869 10869 10870 10871 10872 10872 10872 10873 10874 10874 10874 10873 10874 10874 10875 10876 10877 10878 10877 10877 10877 10876 10876 10876 10875 10874 10874 10873 10872 10870
10760 10764 10767 10770 10773 10776 10781 10785 10788 10791 10794 10796 10798 10800 10802 10805 10808 10810 10811 10812 10814 10815 10816 10818 10819 10821 10822 10823 10824 10825 10826 10828 10830 10832 10833 10836 10838 10840 10841 10841 10841 10843 10844 10846 10846 10847 10848 10848 10849 10850 10850 10852 10853 10855 10857 10857 10857 10858 10859 10860 10860 10861 10862 10862 10862 10862 10862 10862 10862 10863 10864 10865 10865 10865 10866 10866 10865 10864 10864 10864 10863 10862 10861 10860 10859
10749 10751 10754 10758 10761 10764 10767 10771 10775 10778 10781 10783 10785 10788 10790 10792 10795 10797 10798 10799 10801 10803 10804 10805 10807 10809 10809 10810 10812 10814 10815 10816 10818 10819 10820 10822 10824 10826 10829 10830 10831 10832 10832 10833 10835 10836 10836 10837 10837 10837 10838 10839 10841 10842 10844 10845 10845 10846 10847 10847 10848 10849 10850 10850 10850 10850 10851 10851 10851 10851 10851 10852 10852 10852 10853 10853 10852 10852 10853 10852 10851 10850 10849 10848 10846
10737 10740 10742 10745 10748 10751 10754 10758 10761 10765 10767 10769 10771 10774 10776 10779 10781 10783 10785 10786 10788 10790 10791 10792 10794 10796 10797 10797 10798 10800 10803 10804 10805 10805 10806 10808 10810 10812 10815 10817 10819 10820 10821 10821 10822 10824 10824 10825 10826 10826 10826 10827 10828 10829 10830 10832 10832 10833 10834 10834 10835 10836 10837 10838 10837 10838 10838 10839 10838 10838 10838 10839 10838 10839 10839 10839 10839 10839 10840 10839 10838 10838 10837 10836 10834
10725 10728 10731 10734 10736 10739 10742 10745 10747 10751 10754 10756 10758 10760 10762 10765 10767 10770 10772 10773 10774 10776 10778 10778 10779 10782 10783 10783 10783 10785 10788 10790 10791 10791 10791 10793 10796 10799 10800 10801 10804 10806 10808 10809 10810 10810 10811 10812 10813 10814 10814 10814 10814 10815 10816 10818 10819 10820 10820 10821 10821 10822 10823 10824 10824 10824 10824 10825 10825 10825 10825 10825 10825 10825 10825 10826 10826 10826 10826 10826 10826 10825 10823 10823 10821
10713 10716 10719 10722 10725 10728 10730 10732 10735 10737 10740 10742 10744 10746 10747 10749 10752 10755 10758 10760 10761 10762 10764 10765 10766 10768 10768 10767 10767 10771 10774 10776 10777 10777 10777 10777 10780 10783 10784 10786 10788 10790 10792 10795 10796 10797 10797 10798 10799 10800 10800 10801 10801 10802 10802 10804 10805 10805 10806 10807 10807 10807 10808 10809 10809 10810 10809 10810 10811 10811 10811 10811 10811 10811 10811 10811 10812 10813 10813 10813 10812 10811 10810 10809 10808
10702 10705 10707 10710 10713 10716 10718 10721 10722 10724 10726 10728 10730 10732 10734 10735 10737 10740 10742 10745 10747 10748 10749 10750 10752 10753 10752 10750 10751 10755 10759 10761 10762 10763 10761 10760 10763 10766 10768 10770 10773 10775 10777 10779 10780 10780 10782 10783 10785 10786 10787 10787 10788 10789 10789 10789 10790 10790 10791 10792 10792 10793 10794 10794 10794 10794 10794 10794 10795 10795 10795 10796 10796 10796 10796 10796 10797 10798 10798 10797 10797 10796 10795 10795 10794
10691 10694 10696 10699 10702 10704 10706 10708 10710 10712 10713 10715 10716 10718 10720 10722 10724 10725 10726 10728 10730 10732 10733 10734 10737 10738 10737 10735 10735 10737 10740 10744 10747 10748 10745 10744 10746 10749 10751 10753 10757 10760 10760 10761 10762 10764 10765 10766 10768 10771 10773 10774 10776 10777 10776 10775 10775 10775 10776 10777 10778 10778 10779 10779 10779 10779 10779 10779 10778 10779 10779 10779 10779 10780 10780 10780 10781 10782 10781 10781 10780 10780 10779 10779 10778
10680 10683 10685 10688 10690 10693 10694 10696 10698 10699 10700 10702 10703 10704 10705 10707 10709 10710 10710 10711 10712 10714 10715 10718 10720 10720 10719 10719 10720 10720 10722 10725 10728 10731 10730 10729 10729 10730 10733 10739 10743 10742 10740 10741 10744 10746 10747 10749 10751 10755 10759 10760 10760 10761 10761 10761 10762 10762 10762 10762 10763 10763 10763 10762 10762 10762 10763 10763 10763 10763 10762 10762 10762 10763 10764 10763 10763 10763 10763 10763 10763 10763 10762 10761 10760
10670 10672 10673 10675 10678 10680 10682 10683 10685 10686 10687 10688 10689 10690 10691 10692 10693 10694 10695 10695 10695 10696 10697 10700 10703 10703 10701 10701 10703 10704 10703 10705 10709 10711 10713 10714 10713 10712 10715 10723 10728 10725 10722 10724 10726 10727 10728 10731 10734 10739 10743 10742 10740 10741 10744 10745 10747 10748 10748 10749 10749 10749 10748 10746 10745 10746 10747 10747 10748 10747 10745 10744 10746 10748 10748 10747 10746 10745 10745 10745 10745 10744 10744 10744 10743
10658 10660 10662 10663 10664 10666 10668 10670 10671 10672 10673 10674 10674 10675 10676 10676 10677 10678 10679 10679 10679 10679 10679 10681 10684 10685 10683 10682 10684 10685 10685 10686 10689 10692 10694 10697 10699 10698 10699 10704 10706 10704 10704 10708 10709 10708 10709 10713 10718 10722 10724 10722 10719 10721 10725 10726 10727 10730 10732 10732 10732 10732 10731 10731 10731 10732 10732 10732 10732 10732 10729 10728 10730 10732 10732 10731 10729 10729 10730 10730 10728 10726 10727 10728 10728
10647 10648 10650 10651 10652 10653 10655 10656 10657 10658 10659 10659 10659 10660 10660 10661 10661 10662 10663 10662 10662 10663 10663 10663 10665 10666 10665 10663 10663 10666 10667 10668 10670 10673 10676 10679 10682 10684 10685 10686 10686 10684 10685 10688 10689 10687 10689 10694 10700 10704 10705 10704 10701 10702 10705 10707 10709 10710 10711 10711 10711 10711 10711 10712 10713 10715 10715 10715 10716 10717 10715 10713 10714 10716 10717 10715 10714 10713 10714 10714 10712 10710 10710 10710 10711
10637 10638 10639 10640 10641 10642 10642 10643 10644 10644 10644 10645 10645 10646 10646 10646 10646 10646 10646 10646 10646 10647 10647 10646 10647 10648 10647 10645 10644 10645 10646 10647 10650 10655 10659 10660 10662 10665 10669 10670 10669 10666 10664 10665 10666 10668 10671 10674 10678 10682 10686 10687 10685 10684 10685 10688 10690 10691 10690 10690 10691 10691 10691 10692 10694 10696 10696 10695 10696 10698 10699 10698 10697 10698 10700 10700 10699 10698 10697 10697 10698 10697 10695 10693 10693
10627 10628 10629 10629 10630 10630 10631 10631 10631 10631 10631 10631 10632 10632 10631 10631 10631 10630 10629 10630 10630 10630 10630 10629 10629 10630 10630 10628 10627 10626 10626 10626 10630 10636 10641 10641 10642 10646 10650 10653 10652 10648 10644 10644 10648 10652 10654 10654 10656 10661 10666 10667 10666 10665 10666 10668 10671 10671 10669 10668 10670 10671 10672 10673 10674 10675 10675 10674 10675 10678 10681 10681 10679 10678 10679 10680 10680 10679 10679 10679 10680 10680 10678 10675 10675
10619 10619 10619 10619 10619 10619 10619 10619 10619 10619 10618 10618 10618 10618 10617 10616 10616 10615 10613 10613 10613 10613 10613 10612 10612 10611 10610 10610 10610 10609 10609 10609 10612 10618 10622 10623 10624 10627 10630 10631 10630 10627 10625 10628 10633 10636 10636 10636 10636 10639 10643 10644 10643 10644 10646 10649 10651 10650 10647 10644 10646 10651 10655 10656 10656 10655 10654 10654 10654 10656 10659 10660 10660 10659 10659 10659 10659 10658 10659 10660 10660 10659 10658 10655 10655
10611 10611 10610 10610 10610 10609 10609 10608 10608 10607 10606 10605 10605 10604 10604 10602 10601 10600 10598 10597 10596 10596 10595 10594 10594 10593 10592 10591 10591 10592 10592 10593 10595 10599 10604 10606 10607 10608 10608 10609 10608 10605 10605 10609 10613 10616 10618 10618 10617 10617 10618 10619 10620 10621 10624 10628 10630 10630 10626 10622 10623 10628 10633 10635 10636 10636 10635 10635 10635 10635 10636 10637 10637 10637 10638 10639 10638 10637 10638 10639 10638 10638 10637 10636 10635
10604 10603 10602 10602 10601 10601 10600 10599 10598 10597 10596 10594 10593 10592 10591 10589 10587 10586 10584 10582 10580 10579 10578 10577 10576 10574 10574 10573 10573 10573 10575 10576 10578 10580 10584 10588 10589 10589 10588 10588 10586 10584 10584 10588 10592 10595 10597 10598 10596 10593 10592 10594 10596 10598 10600 10603 10605 10605 10604 10602 10602 10604 10608 10610 10613 10614 10615 10615 10616 10615 10615 10615 10614 10614 10615 10617 10617 10616 10616 10616 10616 10616 10616 10616 10615
10597 10596 10595 10595 10594 10593 10592 10590 10589 10588 10586 10584 10582 10580 10579 10577 10574 10572 10570 10568 10565 10562 10561 10560 10559 10558 10557 10557 10556 10556 10557 10558 10558 10560 10564 10568 10569 10569 10569 10568 10566 10563 10562 10564 10568 10573 10576 10576 10574 10571 10569 10568 10569 10572 10575 10576 10577 10578 10580 10580 10580 10580 10582 10584 10586 10587 10589 10591 10593 10593 10592 10592 10592 10592 10592 10593 10595 10595 10594 10593 10592 10592 10593 10593 10593
10589 10589 10588 10587 10586 10584 10583 10581 10580 10578 10577 10574 10572 10569 10567 10565 10562 10559 10556 10553 10550 10547 10545 10543 10543 10542 10542 10541 10540 10540 10541 10541 10540 10540 10542 10545 10546 10547 10548 10547 10545 10542 10540 10539 10540 10545 10549 10551 10552 10550 10548 10545 10545 10546 10549 10550 10550 10551 10555 10557 10557 10557 10556 10557 10558 10560 10562 10564 10566 10567 10568 10568 10568 10568 10568 10568 10570 10571 10571 10569 10567 10567 10569 10570 10570